EHI
0 0 0 0 0 0 0 0 0 0 0 0 0 0 0 0 0 1 2 1 0 0 0 0 0 0 0 0 0 0 0 0 0 0 0 0 0 0
0 0 0 0 0 0 0 0 0 0 0 0 0 0 0 0 0 1 1 1 0 0 0 0 0 0 0 0 0 0 0 0 0 0 0 0 0 0
0 0 0 0 0 0 0 0 0 0 0 0 0 0 0 0 0 0 0 0 0 0 0 0 0 0 0 0 0 0 0 0 0 0 0 0 0 0
0 0 0 0 0 0 0 0 0 0 0 0 0 0 0 0 0 0 0 0 0 0 0 0 0 0 0 0 0 0 0 0 0 0 0 0 0 0
0 0 0 0 0 0 0 0 0 0 0 0 0 0 0 0 0 0 0 0 0 0 0 0 0 0 0 0 0 0 0 0 0 0 0 0 0 0
0 0 0 0 0 0 0 0 0 0 0 0 0 0 0 0 0 0 0 0 0 0 0 0 0 0 0 0 0 0 0 0 0 0 0 0 0 0
0 0 0 0 0 0 0 0 0 0 0 0 0 0 0 0 0 0 0 0 0 0 0 0 0 0 0 0 0 0 0 0 0 0 0 0 0 0
0 0 0 0 0 0 0 0 0 0 0 0 0 0 0 0 0 0 0 0 0 0 0 0 0 0 0 0 0 0 0 0 0 0 0 0 0 0
0 0 0 0 0 0 0 0 0 0 0 0 0 0 0 0 0 0 0 0 0 0 0 0 0 0 0 0 0 0 0 0 0 0 0 0 0 0
0 0 0 0 0 0 0 0 0 0 0 0 0 0 0 0 0 0 0 0 0 0 0 0 0 0 0 0 0 0 0 0 0 0 0 0 0 0
0 0 0 0 0 0 0 0 0 0 0 0 0 0 0 0 0 0 0 0 0 0 0 0 0 0 0 0 0 0 0 0 0 0 0 0 0 0
0 0 0 0 0 0 0 0 0 0 0 0 0 0 0 0 0 0 0 0 0 0 0 0 0 0 0 0 0 0 0 0 0 0 0 0 0 0
0 0 0 0 0 0 0 0 0 0 0 0 0 0 0 0 0 0 0 0 0 0 0 0 0 0 0 0 0 0 0 0 0 0 0 0 0 0
0 0 0 0 0 0 0 0 0 0 0 0 0 0 0 0 0 0 0 0 0 0 0 0 0 0 0 0 0 0 0 0 0 0 0 0 0 0
0 0 0 0 0 0 0 0 0 0 0 0 0 0 0 0 0 0 0 0 0 0 0 0 0 0 0 0 0 0 0 0 0 0 0 0 0 0
0 0 0 0 0 0 0 0 0 0 0 0 0 0 0 0 0 0 0 0 0 0 0 0 0 0 0 0 0 0 0 0 0 0 0 0 0 0
0 0 0 0 0 0 0 0 0 0 0 0 0 0 0 0 0 0 0 0 0 0 0 0 0 0 0 0 0 0 0 0 0 0 0 0 0 0
0 0 0 0 0 0 0 0 0 0 0 0 0 0 0 0 0 0 0 0 0 0 0 0 0 0 0 0 0 0 0 0 0 0 0 0 0 0
0 0 0 0 0 0 0 0 0 0 0 0 0 0 0 0 0 0 0 0 0 0 0 0 0 0 0 0 0 0 0 0 0 0 0 0 0 0
0 0 0 0 0 0 0 0 0 0 0 0 0 0 0 0 0 0 0 0 0 0 0 0 0 0 0 0 0 0 0 0 0 0 0 0 0 0
0 0 0 0 0 0 0 0 0 0 0 0 0 0 0 0 0 0 0 0 0 0 0 0 0 0 0 0 0 0 0 0 0 0 0 0 0 0
0 0 0 0 0 0 0 0 0 0 0 0 0 0 0 0 0 0 0 0 0 0 0 0 0 0 0 0 0 0 0 0 0 0 0 0 0 0
0 0 0 0 0 0 0 0 0 0 0 0 0 0 0 0 0 0 0 0 0 0 0 0 0 0 0 0 0 0 0 0 0 0 0 0 0 0
Wind_Speed
2 2 2 2 2 2 2 2 2 3 4 4 3 3 3 3 5 4 4 8 10 11 12 12 13 13 13 12 12 12 12 12 11 11 11 11 12 12
1 2 2 2 2 2 1 1 2 3 4 3 3 4 3 3 5 4 4 8 9 10 11 12 12 13 13 13 13 13 12 13 12 13 12 12 12 11
2 2 3 2 2 2 1 1 1 2 3 4 3 3 3 4 4 3 3 3 4 8 9 10 11 12 12 12 12 12 13 13 13 13 13 13 12 12
2 2 3 2 2 2 1 2 2 2 2 4 3 3 3 4 4 4 3 3 3 6 8 8 9 10 10 11 11 11 12 13 13 13 13 13 13 13
2 2 2 2 2 2 2 2 2 2 2 2 3 3 3 3 3 3 3 3 4 5 7 8 9 9 10 10 10 10 11 12 12 13 13 13 13 13
1 1 1 2 2 2 2 2 2 2 2 2 2 3 3 3 2 2 3 3 3 4 4 4 6 8 9 9 10 11 11 12 12 12 13 13 13 13
2 1 1 2 2 2 1 2 1 1 2 2 2 2 3 3 2 2 2 3 3 2 2 3 2 2 4 7 9 10 11 12 12 12 12 12 12 12
2 2 2 2 4 4 4 3 2 1 1 1 2 3 4 3 2 2 2 2 3 2 1 3 1 2 3 3 5 7 8 10 11 11 11 11 12 12
0 1 2 2 3 3 5 5 4 4 3 2 3 4 4 3 2 2 2 2 3 3 1 2 2 2 3 3 5 7 7 8 9 9 10 10 11 11
1 1 1 2 3 3 3 4 4 4 4 3 3 4 4 4 3 3 3 3 3 3 1 2 2 2 3 3 4 5 6 6 7 8 9 9 10 10
2 2 2 2 6 4 2 3 4 5 5 5 5 5 5 5 3 1 1 1 3 3 1 2 2 2 2 3 3 3 4 5 6 7 8 8 9 8
3 3 4 4 6 4 1 1 3 5 4 5 5 6 5 5 4 1 2 1 2 3 2 1 1 1 2 2 2 2 2 4 5 6 7 7 7 5
2 3 4 7 6 5 3 2 4 4 3 3 3 4 4 3 3 2 1 2 2 3 3 1 1 1 2 2 2 2 2 2 2 3 5 7 8 7
2 3 4 7 6 6 4 4 5 3 2 2 2 3 3 3 4 3 3 2 2 4 4 1 2 2 2 2 3 2 2 2 2 2 2 4 6 8
3 5 6 7 6 5 5 5 4 2 1 2 3 3 3 3 3 3 3 3 3 3 3 2 2 2 2 3 3 2 2 2 2 2 2 2 3 3
3 5 7 6 5 4 4 3 2 1 1 2 3 3 3 3 2 2 2 2 2 4 4 3 2 2 2 3 3 3 2 2 2 2 2 2 2 3
2 2 2 3 3 3 3 3 2 2 2 2 2 3 3 3 3 2 2 2 2 3 4 4 3 2 2 2 2 2 2 2 3 2 2 2 2 3
2 1 2 2 2 3 3 3 3 3 3 2 2 3 3 3 4 3 2 2 2 3 3 3 2 2 2 2 2 2 2 2 2 2 2 2 2 3
1 1 2 2 2 2 2 2 3 3 3 2 3 3 3 3 3 3 3 3 3 3 3 3 2 1 1 3 4 2 2 2 1 1 1 2 3 3
0 1 2 2 2 2 2 2 3 3 3 3 3 4 4 3 3 3 3 3 3 3 3 3 2 2 2 3 3 3 2 1 2 2 2 1 2 3
1 1 1 1 2 2 2 2 2 3 3 3 3 4 4 3 3 3 3 4 3 2 3 4 4 4 2 0 1 3 3 3 3 2 2 1 1 1
1 1 1 1 1 2 2 2 3 3 4 3 4 4 4 3 3 4 3 3 2 2 3 3 3 2 0 0 2 3 3 3 2 2 2 2 3 3
1 1 1 1 1 1 2 2 3 3 3 3 4 4 4 3 3 3 3 3 2 2 2 3 2 1 0 0 1 2 3 3 2 2 2 4 3 3
Wind_Direction
254 260 254 264 262 249 228 203 210 274 283 277 279 279 276 266 268 258 254 251 248 241 235 233 233 231 228 227 228 231 229 229 226 225 224 224 227 232
247 255 264 266 272 269 259 248 214 223 264 267 261 272 282 290 288 273 259 263 256 249 242 237 234 232 230 229 230 229 225 224 220 222 222 222 225 229
283 262 267 269 271 280 280 280 263 233 260 279 268 283 284 289 295 284 267 257 259 256 252 241 235 233 232 231 229 228 226 223 220 220 221 222 224 227
280 281 280 285 285 288 286 284 279 260 242 278 291 296 290 290 280 280 285 277 270 266 256 247 241 234 231 231 230 228 225 223 220 221 222 223 224 227
264 262 276 290 289 284 281 289 287 298 267 262 280 287 299 312 316 301 299 293 289 283 265 254 252 246 238 233 232 230 226 224 222 221 222 224 225 225
296 282 284 270 262 270 279 285 288 300 297 288 289 303 306 309 323 316 315 305 298 297 290 272 256 248 242 238 233 230 227 224 224 225 224 224 224 222
336 325 321 325 315 299 289 275 280 287 305 306 301 312 307 320 312 295 296 302 297 286 297 288 271 256 248 243 239 232 225 223 223 225 224 223 223 221
343 334 331 350 347 340 325 313 288 251 261 267 275 278 278 277 284 286 283 313 301 293 306 292 283 275 271 245 244 237 230 227 224 222 221 220 219 219
328 306 336 350 344 332 329 335 330 317 283 235 247 263 264 263 268 287 279 258 257 269 273 283 286 280 275 274 257 239 232 231 225 221 219 217 216 216
323 274 306 316 322 331 323 330 321 313 297 282 248 259 265 263 240 242 250 271 282 283 210 257 281 277 293 290 274 248 233 226 228 224 219 220 219 217
327 333 322 305 310 327 335 324 321 316 321 323 313 305 302 301 294 316 318 318 302 293 251 208 264 289 295 290 290 277 260 244 234 228 222 220 218 215
325 323 323 316 314 324 298 288 306 302 317 326 325 326 320 315 312 258 230 248 273 286 279 234 261 294 305 292 298 302 289 265 246 233 225 221 213 203
319 316 311 318 317 312 300 252 266 283 303 313 319 326 328 328 321 303 265 219 234 262 271 247 257 249 241 280 289 274 258 247 242 237 227 220 210 198
285 292 300 320 325 321 314 313 318 324 328 328 326 320 318 313 309 308 299 278 245 247 263 239 234 232 240 266 274 276 270 249 224 222 227 223 221 218
283 300 316 326 331 329 329 333 340 349 340 326 312 297 289 290 304 315 317 311 311 298 289 247 224 237 232 245 257 261 273 263 225 217 219 218 218 207
314 319 327 334 342 331 329 334 329 314 296 282 292 295 305 312 314 316 318 323 327 314 306 288 256 233 253 256 247 259 248 242 237 226 225 233 224 210
321 346 355 350 346 338 332 328 329 339 332 315 313 318 317 318 312 311 310 317 312 303 311 314 307 278 248 244 256 259 254 257 245 229 211 221 241 235
75 360 326 322 319 321 326 329 329 326 315 317 317 311 309 309 311 312 310 305 301 298 298 300 314 334 338 313 253 252 262 258 264 241 197 205 243 251
73 308 309 308 310 318 322 322 320 317 321 326 318 311 312 310 310 310 310 308 302 295 293 298 303 306 308 306 299 267 235 249 254 255 226 215 232 248
305 288 299 306 316 321 320 319 321 327 330 325 320 318 316 313 314 315 311 303 297 300 305 306 291 260 237 249 274 293 286 234 234 242 245 252 251 256
297 292 289 300 308 313 315 317 319 320 319 319 317 313 310 310 312 312 314 316 310 307 304 296 283 285 259 316 313 304 294 272 227 223 218 220 256 266
278 283 293 306 305 312 318 321 323 319 320 318 313 312 310 307 305 307 309 311 306 296 294 299 309 320 350 333 286 294 308 316 308 285 264 221 204 210
263 275 285 303 307 311 313 314 316 314 316 316 313 312 313 309 307 308 307 308 310 304 306 314 324 336 318 250 283 299 315 322 328 343 324 314 282 258